Location: Rometta
(44.2000°N, 10.0500°E)
Time: 12:25:36
(UTC+00:00)

Cosmos 2058 Rocket - Pass Details

Date: 20 January 2021
Orbit: 611 x 639 km, 82.5° (Epoch: 06 March)

Event Time Altitude Azimuth Distance (km) Brightness Sun altitude
Rises 17:22:14 0° 354° (N) 2,942 6.4 -12.3°
Reaches altitude 10° 17:24:30 10° 357° (N) 2,032 5.6 -12.6°
Maximum altitude 17:29:00 65° 80° (E) 706 3.1 -13.4°
Drops below altitude 10° 17:33:27 10° 162° (SSE) 2,024 5.7 -14.2°
Sets 17:35:42 0° 166° (SSE) 2,928 6.5 -14.6°
